TimeCST,TemperatureF,Dew PointF,Humidity,Sea Level PressureIn,VisibilityMPH,Wind Direction,Wind SpeedMPH,Gust SpeedMPH,PrecipitationIn,Events,Conditions,WindDirDegrees,DateUTC
12:17 AM,28.4,26.6,93,29.95,7.0,West,8.1,-,N/A,,Overcast,270,2012-12-11 06:17:00
12:52 AM,28.0,25.0,88,29.98,9.0,West,11.5,-,N/A,,Overcast,270,2012-12-11 06:52:00
1:52 AM,28.0,24.1,85,29.99,10.0,WSW,8.1,-,N/A,,Overcast,250,2012-12-11 07:52:00
2:52 AM,27.0,23.0,85,30.01,10.0,WSW,6.9,-,N/A,,Overcast,240,2012-12-11 08:52:00
3:14 AM,26.6,23.0,86,29.98,10.0,SW,9.2,-,N/A,,Overcast,230,2012-12-11 09:14:00
3:32 AM,26.6,23.0,86,29.98,9.0,SW,11.5,-,N/A,,Overcast,230,2012-12-11 09:32:00
3:52 AM,25.0,21.9,88,30.01,9.0,WSW,6.9,-,N/A,,Overcast,240,2012-12-11 09:52:00
4:16 AM,24.8,21.2,86,29.99,7.0,WSW,8.1,-,N/A,,Mostly Cloudy,240,2012-12-11 10:16:00
4:52 AM,21.9,21.0,96,30.03,6.0,WSW,5.8,-,N/A,,Partly Cloudy,240,2012-12-11 10:52:00
5:52 AM,19.9,18.0,92,30.04,8.0,SSW,5.8,-,N/A,,Clear,210,2012-12-11 11:52:00
6:52 AM,19.0,17.1,92,30.04,9.0,South,4.6,-,N/A,,Clear,190,2012-12-11 12:52:00
7:52 AM,21.0,18.0,88,30.04,7.0,South,6.9,-,N/A,,Clear,180,2012-12-11 13:52:00
8:52 AM,24.1,19.9,84,30.05,9.0,SSW,9.2,-,N/A,,Clear,200,2012-12-11 14:52:00
9:52 AM,27.0,19.9,75,30.05,10.0,SSW,13.8,-,N/A,,Clear,210,2012-12-11 15:52:00
10:52 AM,28.9,19.0,67,30.05,10.0,SSW,13.8,-,N/A,,Clear,210,2012-12-11 16:52:00
11:52 AM,30.9,19.9,64,30.03,10.0,SSW,12.7,-,N/A,,Clear,200,2012-12-11 17:52:00
1:52 PM,34.0,19.9,56,30.02,10.0,SW,15.0,21.9,N/A,,Partly Cloudy,230,2012-12-11 19:52:00
2:52 PM,34.0,21.9,61,30.03,10.0,SW,13.8,20.7,N/A,,Clear,220,2012-12-11 20:52:00
3:52 PM,32.0,21.9,66,30.04,10.0,SW,12.7,-,N/A,,Clear,220,2012-12-11 21:52:00
4:52 PM,30.0,21.9,72,30.07,10.0,SW,6.9,-,N/A,,Clear,230,2012-12-11 22:52:00
5:52 PM,30.0,21.9,72,30.09,10.0,SW,8.1,-,N/A,,Scattered Clouds,220,2012-12-11 23:52:00
6:52 PM,28.9,21.9,75,30.11,10.0,SW,6.9,-,N/A,,Clear,220,2012-12-12 00:52:00
7:52 PM,28.0,21.9,78,30.12,10.0,SSW,6.9,-,N/A,,Clear,210,2012-12-12 01:52:00
8:52 PM,28.0,21.9,78,30.12,10.0,SSW,8.1,-,N/A,,Clear,200,2012-12-12 02:52:00
9:52 PM,28.0,21.9,78,30.14,10.0,SSW,9.2,-,N/A,,Clear,210,2012-12-12 03:52:00
10:52 PM,27.0,21.0,78,30.15,10.0,SSW,8.1,-,N/A,,Partly Cloudy,200,2012-12-12 04:52:00
11:52 PM,26.1,21.0,81,30.18,10.0,South,8.1,-,N/A,,Clear,190,2012-12-12 05:52:00